Weather in Ashgabat

Turkmenistan     37°56′06″N   58°22′44″E
temp.,
°C
wind,
m/s
gust,
m/s
humid.,
%
clouds,
%
prec.,
mm/h
press.,
hPa
HPBL,
m
15 april, thu
thu1523:00+21ese48215 0.0 1015332
02:00+19e51023100 0.0 1014351
05:00+18ese49255 0.0 1014254
08:00+18e47265 0.0 1015214
11:00+23ese231967 0.0 1016861
14:00+26ene221799 0.0 10151564
17:00+26wsw2220100 0.0 10141249
20:00+23sse453414 0.0 1014254
16 april, fri
fri1623:00+22ese12353 0.0 101572
02:00+20nw12360 0.0 101460
05:00+19w23310 0.0 101579
08:00+20wnw23295 0.0 1016137
11:00+24nnw3222100 0.0 1017892
14:00+26nw1120100 0.0 10151593
17:00+27wnw211995 0.1 10142009
20:00+26wnw4419100 0.1 1015591
17 april, sat
sat1723:00+24sw4525100 0.1 1016319
02:00+21s91141100 0.1 1017467
05:00+20wsw23426 0.1 1017123
08:00+20wnw69465 0.0 1020529
11:00+23nw44335 0.0 10201191
14:00+26nnw33250 0.0 10192351
17:00+27n44220 0.0 10182756
20:00+25n33231 0.0 10191137
18 april, sun
sun1823:00+24sse22265 0.0 101939
02:00+22ese352991 0.0 1018124
05:00+21se23335 0.0 101868
08:00+22se353373 0.0 1018158
11:00+28ese7721100 0.0 10171540
14:00+30e6517100 0.0 10142252
17:00+31e53164 0.0 10122349
20:00+27ese59185 0.0 1012484
19 april, mon
mon1923:00+25ese6111822 0.0 1012383
02:00+23ese4720100 0.0 1010152
05:00+22ese3522100 0.0 1010108
08:00+22e222284 0.0 101192
11:00+28nnw2317100 0.0 1011457
14:00+30nnw111015100 0.0 10111757
17:00+26nw552695 0.0 10131677
20:00+23nw57335 0.0 1014555